OBJECT E, 56747

Orbit data source: Space-Track

You're viewing an Uncataloged Satellite

Recently launched and/or uncataloged satellites may have evolving metadata. Metadata may include but not limited to: Owner, Maufacturer, Bus, Motor, and Mission.

OBJECT E, 56747 is a South Korean satellite in SSO that was launched on Thu, 25 May 2023 UTC via an NURI launch vehicle from the Naro Space Center, South Korea (NSC). Unknown objects in Earth's orbit typically refer to objects detected orbiting the Earth but have not yet been identified or cataloged. These objects could be anything from previously untracked satellites, spent rocket stages, debris from satellite collisions, or even natural meteoroids temporarily captured by Earth's gravity.

Loading next visibility...
Identifier
56747, 2023-072E
Orbit
SSO
Country
Flag of UnknownUnknown / SKOR
Related business
None
Manufacturer
Unknown
Mission
Operational Commercial Technology
Bus & Motor
Unknown
Mass
Unknown
Launch date (UTC)
2023-05-25 (3 years ago)
Launch vehicle
NURI
Launch site
Naro Space Center, South Korea (NSC)
Object type
Unknown
Shape & HBR
Box, 0.1 m
Radar Cross Section
0.035 m², Small (<0.1 m²)

Expand to show TLE details & history
Last TLE update: 14 hours ago

TLE from 14 hours ago
0 OBJECT E
1 56747U 23072E   26034.63024192  .00026694  00000-0  64185-3 0  9999
2 56747  97.5181 239.3304 0005270  98.9539 261.2304 15.41278981149764
Epoch: 2026-02-03T15:07Z
TLE epoch observation values (Epoch: 2026-02-03T15:07:32.901Z)
Latitude
-0.00005°
Longitude
-121.3651°
Altitude
445.999 km
Speed
7.644 km/s
True Right ascension
15h 57m 19s
True Declination
0° 00' 00"
Sunlit
Object was in daylight at epoch
Visualization orbit readout
Latitude
Unknown
Longitude
Unknown
Altitude
Unknown
Speed
Unknown
Apparent Right ascension
Unknown
Apparent Declination
Unknown
Sunlit
N/A
Visualization observer readout
Local Sidereal Time
07:09:44
Azimuth
Unknown
Elevation
Unknown
Doppler factor
Unknown
Orbital elements
Apogee altitude
442.869 km
Perigee altitude
435.683 km
Semi-major axis
6,817.413 km
Eccentricity
0.00053
Inclination
97.5181°
RAAN
239.3304°
Arg. of periapsis
98.9539°
True anomaly
261.17072°
Mean anomaly
261.2304°
Eccentric anomaly
261.20056°
Mean motion
3.85579 °/min
Orbital period
93.37 mins
BSTAR
0.00064185
Loading maneuver chart data...
Computing Atmospheric mass density...
Loading historical data...
Loading historical data...
Loading historical data...
Loading historical data...
Loading historical data...
Loading historical data...
Loading historical data...

Documentation

Showing up to 5 results
|